[[{"header":{"parameterUnit":"m.s-1","parameterCategory":1,"la1":30.2991,"la2":30.254,"lo1":-89.0895,"lo2":-89.0444,"dy":0.0017,"dx":0.0017,"nx":28,"ny":28,"refTime":"2025-04-04T21:00:00:Z","depth":0,"parameterNumber":2,"parameterNumberName":"U-component_of_WINDS"},"data":[0,0,0,0,0,0,0,0,0,0,0,0,0,0,0,0,0,0,0,0,0,0,0,0,0,0,0,0,0,0,0,0,0,0,0,0,0,0,0,0,0,0,0,0,0,0,0,0,0,0,0,0,0,0,0,0,0,0,1.0416,1.0415,0,1.0389,1.0389,1.0389,1.0321,1.0319,1.0318,1.0316,1.0293,1.0294,1.0294,0,0,0,0,0,0,0,0,0,0,0,0,0,1.041,1.041,1.0416,1.0415,1.0415,1.0389,1.0389,1.0389,1.0321,1.0319,1.0317,1.0316,1.0293,1.0293,1.0294,0,0,0,0,0,0,0,0,0,0,0,0,0,1.0401,1.0411,1.0416,1.0378,1.0374,1.0389,1.0389,1.0388,1.0321,1.0319,1.0317,1.0315,1.0292,1.0293,1.0294,1.0345,0,0,1.0298,1.0298,0,0,0,0,0,0,0,0,1.0402,1.0401,1.0384,1.0381,1.0377,1.0356,1.0378,1.0374,1.0322,1.0342,1.0316,1.0314,1.0316,1.0315,1.0315,1.0344,1.0343,1.0298,1.0299,1.0299,1.0299,0,0,0,0,0,0,0,1.0402,1.0402,1.0405,1.0384,1.0379,1.0363,1.036,1.0377,1.0341,1.034,1.0335,1.0332,1.0313,1.0314,1.0314,1.0342,1.0298,1.0299,1.0299,1.03,1.041,1.0413,0,0,0,0,0,0,1.0408,1.0403,1.0406,1.0404,1.0384,1.0365,1.0361,1.0365,1.0341,1.0335,1.0334,1.0329,1.0313,1.0313,1.0313,1.037,1.0299,1.03,1.0301,1.0408,1.0411,1.0413,0,0,0,0,0,0,1.0408,1.0409,1.0407,1.0402,1.0401,1.0368,1.0372,1.0366,1.0366,1.0337,1.033,1.0341,1.0311,1.0311,1.0337,1.0368,1.03,1.0301,1.0405,1.0409,1.0412,1.0484,0,0,0,0,0,0,1.0408,1.0409,1.0428,1.0403,1.0401,1.0431,1.0374,1.0367,1.0368,1.0361,1.0342,1.0336,1.031,1.0336,1.0338,1.0368,1.0302,1.0403,1.0407,1.0411,1.0479,1.049,1.0499,0,0,0,0,0,1.0408,1.045,1.0429,1.043,1.0423,1.0433,1.0432,1.04,1.037,1.0389,1.037,1.0337,1.0364,1.0339,1.0341,1.0372,1.04,1.0406,1.0411,1.0475,1.0488,1.0499,0,0,0,0,0,0,1.048,1.0446,1.0422,1.0457,1.0448,1.0422,1.0444,1.0415,1.0415,1.0409,1.037,1.0366,1.0397,1.0387,1.036,1.0419,1.0377,1.0383,1.0425,1.0437,1.0447,1.0449,1.0303,0,0,0,0,0,1.05,1.051,1.048,1.0513,1.051,1.0478,1.0481,1.0457,1.0447,1.0443,1.0426,1.0418,1.0425,1.043,1.0435,1.0477,1.0472,1.0499,1.0509,1.0518,1.0523,1.0545,1.0556,1.043,1.043,1.043,0,0,1.0541,1.0524,1.0533,1.0527,1.0518,1.053,1.0475,1.0491,1.0499,1.0445,1.0468,1.0456,1.0445,1.0479,1.0493,1.0471,1.0557,1.0524,1.0531,1.0532,1.0551,1.0563,1.0574,1.0434,1.0433,1.0433,0,0,1.0622,1.061,1.0636,1.0627,1.0613,1.0591,1.0598,1.0575,1.0564,1.0586,1.0546,1.0556,1.0568,1.0562,1.056,1.0638,1.0608,1.064,1.0693,1.0714,1.0724,1.0733,1.0761,1.0771,1.0646,1.0646,1.0646,0,1.0676,1.0691,1.0654,1.0671,1.067,1.062,1.0647,1.0641,1.0629,1.063,1.0605,1.0619,1.0608,1.064,1.0659,1.0659,1.0665,1.0643,1.0725,1.0734,1.0741,1.0767,1.0778,1.065,1.065,1.0649,1.0649,0,1.0757,1.0769,1.0792,1.078,1.0782,1.0804,1.0771,1.0777,1.0752,1.0733,1.0756,1.0741,1.0741,1.0747,1.0724,1.0776,1.0762,1.0732,1.0689,1.0758,1.0782,1.0792,1.0656,1.0655,1.0654,1.0653,0,0,1.0884,1.0851,1.086,1.0854,1.0834,1.0842,1.0862,1.0861,1.0867,1.0861,1.0877,1.0888,1.0859,1.0857,1.0833,1.0851,1.0914,1.0819,1.0818,1.0837,1.097,1.0993,1.1005,1.0893,1.0895,1.0896,1.0971,0,1.096,1.0991,1.0958,1.0996,1.1006,1.0959,1.0976,1.0966,1.0949,1.0956,1.0937,1.0945,1.0907,1.0905,1.0922,1.0903,1.094,1.0897,1.0909,1.0909,1.0913,1.1018,1.1042,1.1114,1.098,1.0982,1.0983,0,1.1054,1.105,1.1089,1.1066,1.1069,1.1085,1.1081,1.1088,1.1075,1.1061,1.1059,1.1029,1.1047,1.1004,1.103,1.1001,1.1004,1.0995,1.0997,1.0997,1.0951,1.1021,1.1135,1.1146,1.0997,1.0996,1.0995,0,1.1142,1.1147,1.1171,1.1167,1.1141,1.1153,1.1143,1.1128,1.113,1.1127,1.1127,1.1127,1.1127,1.1128,1.1098,1.107,1.1127,1.1082,1.1117,1.1118,1.1132,1.1131,1.1248,1.1133,1.1133,1.1133,1.1132,0,1.1231,1.1257,1.121,1.1225,1.1252,1.1214,1.1242,1.1227,1.1215,1.1226,1.1186,1.1198,1.1158,1.1165,1.1143,1.1167,1.1167,1.1157,1.1151,1.1161,1.1162,1.1162,1.1157,1.1135,1.1135,1.1134,1.1134,0,1.1335,1.1304,1.1327,1.13,1.1293,1.1315,1.1292,1.1305,1.1284,1.1299,1.1301,1.1269,1.1276,1.1246,1.1249,1.1233,1.1269,1.1255,1.1273,1.1269,1.1305,1.1302,1.1427,1.1441,1.1317,1.1318,1.1319,0,1.1393,1.1412,1.1386,1.139,1.1382,1.1389,1.139,1.1353,1.1356,1.1343,1.1357,1.1361,1.1361,1.1375,1.1353,1.1354,1.1339,1.1383,1.1339,1.1349,1.134,1.134,1.1341,1.1392,1.1394,1.1395,1.1396,0,1.1501,1.1485,1.1487,1.1484,1.1486,1.1482,1.1475,1.1481,1.1441,1.1446,1.1452,1.1453,1.1454,1.1459,1.1455,1.1445,1.1415,1.141,1.1418,1.1429,1.1439,1.1434,1.1298,1.1407,1.1406,1.1405,1.1405,1.1404,1.1584,1.1598,1.1582,1.1585,1.1576,1.1571,1.1581,1.1562,1.1566,1.1563,1.1541,1.1552,1.1539,1.1531,1.1524,1.1532,1.1512,1.1524,1.1527,1.153,1.1536,1.1437,1.1531,1.1531,1.1531,1.153,1.153,0,1.1689,1.1676,1.168,1.1671,1.1674,1.1644,1.1635,1.164,1.1649,1.1639,1.164,1.1647,1.165,1.1628,1.1629,1.1639,1.1625,1.1641,1.164,1.1638,1.1555,1.1548,1.1652,1.1652,1.1652,1.1652,1.1652,1.1652,1.1745,1.1766,1.1748,1.1766,1.1752,1.1761,1.1759,1.1754,1.1746,1.1755,1.1757,1.1742,1.1727,1.1726,1.1728,1.1722,1.1724,1.1745,1.1734,1.1656,1.1644,1.1633,1.1626,1.1746,1.1746,1.1816,1.1817,1.1818]},{"header":{"parameterUnit":"m.s-1","parameterCategory":1,"la1":30.2991,"la2":30.254,"lo1":-89.0895,"lo2":-89.0444,"dy":0.0017,"dx":0.0017,"nx":28,"ny":28,"refTime":"2025-04-04T21:00:00:Z","depth":0,"parameterNumber":3,"parameterNumberName":"V-component_of_WINDS"},"data":[0,0,0,0,0,0,0,0,0,0,0,0,0,0,0,0,0,0,0,0,0,0,0,0,0,0,0,0,0,0,0,0,0,0,0,0,0,0,0,0,0,0,0,0,0,0,0,0,0,0,0,0,0,0,0,0,0,0,8.9887,8.9888,0,9.0002,9.0003,9.0004,8.9967,8.9965,8.9962,8.996,9.0068,9.0073,9.0078,0,0,0,0,0,0,0,0,0,0,0,0,0,8.9627,8.9632,8.9887,8.9888,8.989,9.0001,9.0003,9.0004,8.9968,8.9965,8.9962,8.9959,9.0066,9.0072,9.0078,0,0,0,0,0,0,0,0,0,0,0,0,0,8.974,8.9634,8.9887,8.9885,8.9886,9.0001,9.0003,9.0005,8.9968,8.9965,8.9961,8.9958,9.0064,9.0072,9.0079,9.0199,0,0,9.0103,9.0106,0,0,0,0,0,0,0,0,8.9734,8.975,8.9884,8.9886,8.9887,8.9967,8.9951,9.007,8.9969,8.9937,8.996,8.9956,9.0037,9.0046,9.0075,9.0205,9.0209,9.0103,9.0108,9.0111,9.0114,0,0,0,0,0,0,0,8.9726,8.9745,8.9932,8.9886,8.9888,8.9876,8.9888,8.9973,9.0005,8.9939,8.9937,8.9952,9.0036,9.0068,9.0078,9.0211,9.0103,9.011,9.0115,9.0118,9.0444,9.0448,0,0,0,0,0,0,8.9719,8.9738,8.9928,8.9935,8.98,8.9883,8.9897,8.9945,9.0004,9.001,8.9955,8.9949,9.0057,9.0069,9.0081,9.0227,9.0111,9.0119,9.0123,9.044,9.0445,9.0449,0,0,0,0,0,0,8.9713,8.9736,8.9924,8.9837,8.986,8.9892,8.9946,8.9949,8.998,9.0016,9.0021,8.9982,9.0054,9.007,9.0171,9.023,9.0122,9.0129,9.0435,9.0442,9.0447,9.0518,0,0,0,0,0,0,8.9706,8.9734,8.9783,8.9838,8.9864,9.0015,8.9949,8.9954,8.9995,8.9989,9.0043,9.0048,9.0053,9.016,9.0179,9.0239,9.0135,9.043,9.0438,9.0445,9.0511,9.0526,9.0539,0,0,0,0,0,8.9697,8.9796,8.9785,8.9809,8.9926,9.0018,9.0033,9.0039,9.0,9.0047,9.007,9.0046,9.022,9.017,9.0191,9.0254,9.0426,9.0436,9.0445,9.0504,9.0523,9.0539,0,0,0,0,0,0,8.9743,8.9803,8.9792,8.9913,8.9961,9.0012,9.0072,9.0059,9.0117,9.0109,9.0111,9.0123,9.0227,9.025,9.0194,9.0374,9.0317,9.0331,9.0355,9.0373,9.0387,9.038,9.0141,0,0,0,0,0,8.9768,8.9841,8.9888,8.999,9.0015,9.004,9.008,9.0081,9.013,9.0149,9.0179,9.0225,9.029,9.0332,9.0394,9.0513,9.0524,9.0567,9.0581,9.0592,9.0604,9.0669,9.0689,9.0479,9.0479,9.0479,0,0,8.9819,8.9861,8.9906,9.0,9.0038,9.0111,9.0057,9.0136,9.019,9.016,9.0258,9.0282,9.0332,9.0444,9.0494,9.0466,9.0665,9.0604,9.0613,9.0619,9.0681,9.0701,9.0718,9.0485,9.0484,9.0483,0,0,8.995,8.9989,9.0079,9.0118,9.0177,9.0193,9.0214,9.0268,9.0283,9.0382,9.0362,9.0423,9.0535,9.0573,9.0607,9.0752,9.0732,9.0771,9.0845,9.0909,9.0925,9.094,9.0992,9.1011,9.0783,9.0783,9.0783,0,9.0005,9.0118,9.0125,9.0208,9.0249,9.0229,9.0318,9.0354,9.0429,9.0457,9.0425,9.0567,9.0599,9.0719,9.0755,9.0782,9.0805,9.0766,9.0923,9.0938,9.0951,9.1001,9.1021,9.0788,9.0787,9.0787,9.0786,0,9.0183,9.0261,9.0325,9.0403,9.045,9.0535,9.0554,9.0601,9.0597,9.0615,9.0716,9.0755,9.0824,9.0852,9.0848,9.0971,9.0953,9.0922,9.0865,9.0976,9.1023,9.1042,9.0794,9.0793,9.0791,9.079,0,0,9.0346,9.0428,9.0451,9.0486,9.0549,9.0608,9.0691,9.0763,9.0803,9.0854,9.0924,9.1019,9.0992,9.103,9.103,9.1085,9.1198,9.1048,9.1049,9.1075,9.1337,9.136,9.1382,9.1185,9.1189,9.1192,9.1333,0,9.0483,9.0634,9.0643,9.0778,9.085,9.0831,9.0903,9.0948,9.0967,9.1028,9.1047,9.1116,9.1074,9.1097,9.1151,9.1173,9.1251,9.1163,9.1248,9.1251,9.1237,9.1407,9.1432,9.1563,9.1351,9.1354,9.1356,0,9.0664,9.0725,9.0868,9.0923,9.0953,9.1018,9.1084,9.1144,9.1193,9.1203,9.1246,9.1238,9.1321,9.1261,9.1374,9.1314,9.1348,9.1364,9.1369,9.1378,9.1311,9.1421,9.1605,9.1625,9.1385,9.1383,9.1381,0,9.077,9.0888,9.0989,9.1019,9.1084,9.1131,9.1159,9.1206,9.1248,9.1304,9.1332,9.1396,9.1431,9.1479,9.1488,9.1443,9.1601,9.1542,9.161,9.161,9.1645,9.1643,9.1839,9.1666,9.1666,9.1665,9.1665,0,9.0923,9.1011,9.1038,9.1101,9.1199,9.1207,9.1302,9.1327,9.1369,9.1433,9.1419,9.1479,9.1487,9.1548,9.1555,9.1648,9.1663,9.1672,9.1673,9.1674,9.1673,9.1698,9.1689,9.1671,9.167,9.1669,9.1668,0,9.1059,9.1081,9.119,9.1244,9.1259,9.1329,9.1373,9.1431,9.1449,9.1531,9.155,9.1577,9.1649,9.1662,9.1745,9.175,9.1861,9.1852,9.1846,9.1845,9.1913,9.1907,9.2132,9.2162,9.1969,9.1971,9.1972,0,9.1156,9.1224,9.1286,9.133,9.1362,9.1433,9.1477,9.1486,9.1532,9.1594,9.1645,9.1716,9.1774,9.1889,9.1914,9.1978,9.197,9.2045,9.198,9.1979,9.1973,9.1969,9.1976,9.2058,9.206,9.2061,9.2063,0,9.1325,9.1333,9.1399,9.1469,9.1523,9.1578,9.1629,9.1665,9.1681,9.1733,9.1808,9.1853,9.194,9.201,9.2074,9.21,9.2084,9.2083,9.2103,9.2105,9.2099,9.2105,9.1881,9.2078,9.2077,9.2075,9.2075,9.2074,9.1446,9.1506,9.1559,9.1633,9.1674,9.1722,9.1781,9.1806,9.187,9.1944,9.1945,9.2027,9.2074,9.2158,9.2189,9.2251,9.2227,9.2255,9.2262,9.227,9.2277,9.2089,9.2263,9.2262,9.2262,9.2261,9.2261,0,9.1616,9.1649,9.1717,9.1792,9.185,9.1832,9.1888,9.1936,9.201,9.2057,9.2115,9.2201,9.2269,9.23,9.2366,9.241,9.2405,9.2428,9.2425,9.2431,9.2294,9.2271,9.2431,9.2431,9.2431,9.2431,9.2431,9.2431,9.1711,9.1813,9.1826,9.1947,9.1978,9.2062,9.2096,9.214,9.2177,9.2275,9.2333,9.2354,9.2393,9.2463,9.2524,9.2531,9.2556,9.2583,9.2587,9.2458,9.2441,9.2424,9.2403,9.2588,9.2589,9.2719,9.272,9.2721]}]]